Hourly Data Report for October 23, 2013

All times are specified in Local Standard Time (LST). Add 1 hour to adjust for Daylight Saving Time where and when it is observed.

CHARLOTTETOWN A
PRINCE EDWARD ISLAND

46°17'21.000" N
63°07'09.000" W
48.50 m
8300301
71706
YYG

Download Data

Hourly Data (October 2013)
Hourly Data Report for October 23, 2013
Temp Definition
°C
Dew Point Temp Definition
°C
Rel Hum Definition
%
Wind Dir Definition
10's deg

Wind Spd Definition
km/h
Visibility Definition
km
Stn Press Definition
kPa
Hmdx Definition


Wind Chill Definition


Weather Definition


TIME
00:00 Legend Double Dagger 11.0 10.2 95 16 22 9.7 99.98     Moderate Rain,Fog
01:00 Legend Double Dagger 11.0 10.1 94 15 25 8.1 99.86     Moderate Rain,Fog
02:00 Legend Double Dagger 11.5 10.7 95 19 18 6.4 99.91     Moderate Rain,Fog
03:00 Legend Double Dagger 11.0 10.7 98 22 9 9.7 99.87     Rain,Fog
04:00 Legend Double Dagger 10.6 10.3 98 18 8 12.9 99.82     Rain
05:00 Legend Double Dagger 8.8 7.6 92 29 9 24.1 99.82     Cloudy
06:00 Legend Double Dagger 7.1 6.1 93 30 12 24.1 99.86     LegendNANA
07:00 Legend Double Dagger 6.3 5.6 95 29 12 24.1 99.89     LegendNANA
08:00 Legend Double Dagger 7.3 5.8 90 28 8 24.1 99.96     Mostly Cloudy
09:00 Legend Double Dagger 8.3 5.9 85 29 13 24.1 99.94     LegendNANA
10:00 Legend Double Dagger 9.4 4.6 72 31 9 24.1 99.98     LegendNANA
11:00 Legend Double Dagger 10.2 5.2 71 35 9 24.1 99.94     Mostly Cloudy
12:00 Legend Double Dagger 9.9 4.3 68 29 5 24.1 99.88     LegendNANA
13:00 Legend Double Dagger 10.1 3.2 62 17 1 24.1 99.82     LegendNANA
14:00 Legend Double Dagger 10.3 2.7 59 33 5 24.1 99.73     Mainly Clear
15:00 Legend Double Dagger 10.5 2.6 58 2 10 24.1 99.69     LegendNANA
16:00 Legend Double Dagger 9.4 3.0 64 4 15 24.1 99.70     LegendNANA
17:00 Legend Double Dagger 6.5 2.2 74 2 9 24.1 99.64     Mainly Clear
18:00 Legend Double Dagger 5.5 1.8 77 3 2 24.1 99.69     LegendNANA
19:00 Legend Double Dagger 2.8 1.9 94 2 4 24.1 99.68     LegendNANA
20:00 Legend Double Dagger 2.2 1.3 94 5 4 24.1 99.64     Mainly Clear
21:00 Legend Double Dagger 3.4 2.4 93 3 3 24.1 99.58     LegendNANA
22:00 Legend Double Dagger 2.9 2.2 95 36 3 24.1 99.44     LegendNANA
23:00 Legend Double Dagger 3.0 2.3 95 15 1 24.1 99.40     Cloudy

Notes on Data Quality.

Legend

  • E = Estimated
  • M = Missing
  • NA = Not Available
  • ‡ = Partner data that is not subject to review by the National Climate Archives
Date modified: